START_TIME,STEP,MOV.,M6,t_acc.,M7,t_acc.,M19,t_acc.,H36,t_acc.
1979-07-15 12:00:27.320 ,0,0,1.,12.0,0.,12.0,0.,12.0,0.,12.0
1979-07-15 12:00:39.320 ,0,0,0.,12.0,0.,12.0,0.,12.0,0.,12.0
1979-07-15 12:00:51.320 ,1,1,0.,12.0,0.,12.0,0.,12.0,0.,12.0
1979-07-15 12:01:03.320 ,1,1,0.,12.0,0.,12.0,0.,12.0,0.,12.0
1979-07-15 12:01:15.320 ,1,0,0.,12.0,0.,12.0,0.,12.0,0.,12.0
1979-07-15 12:01:27.320 ,1,0,0.,12.0,0.,12.0,0.,12.0,0.,12.0
1979-07-15 12:01:39.320 ,2,1,0.,12.0,0.,12.0,0.,12.0,0.,12.0
1979-07-15 12:01:51.320 ,2,1,0.,12.0,0.,12.0,0.,12.0,0.,12.0
1979-07-15 12:02:03.320 ,2,0,0.,12.0,0.,12.0,0.,12.0,0.,12.0
1979-07-15 12:02:15.320 ,2,0,0.,12.0,0.,12.0,0.,12.0,0.,12.0
1979-07-15 12:02:27.320 ,3,1,0.,12.0,0.,12.0,0.,12.0,0.,12.0
1979-07-15 12:02:39.320 ,3,1,0.,12.0,0.,12.0,0.,12.0,0.,12.0
1979-07-15 12:02:51.320 ,3,0,0.,12.0,0.,12.0,0.,12.0,0.,12.0
1979-07-15 12:03:03.320 ,3,0,0.,12.0,0.,12.0,0.,12.0,0.,12.0
1979-07-15 12:03:15.320 ,4,1,0.,12.0,0.,12.0,0.,12.0,0.,12.0
1979-07-15 12:03:27.320 ,4,1,0.,12.0,0.,12.0,0.,12.0,0.,12.0
1979-07-15 12:03:39.320 ,4,0,0.,12.0,0.,12.0,0.,12.0,0.,12.0
1979-07-15 12:03:51.320 ,4,0,0.,12.0,0.,12.0,0.,12.0,0.,12.0
1979-07-15 12:04:03.320 ,5,1,0.,12.0,0.,12.0,0.,12.0,0.,12.0
1979-07-15 12:04:15.320 ,5,1,0.,12.0,0.,12.0,0.,12.0,0.,12.0
1979-07-15 12:04:27.320 ,5,0,0.,12.0,0.,12.0,0.,12.0,0.,12.0
1979-07-15 12:04:39.320 ,5,0,0.,12.0,0.,12.0,0.,12.0,0.,12.0
1979-07-15 12:04:51.320 ,6,1,0.,12.0,0.,12.0,0.,12.0,0.,12.0
1979-07-15 12:05:03.320 ,6,1,0.,12.0,0.,12.0,0.,12.0,0.,12.0
1979-07-15 12:05:15.320 ,6,0,0.,12.0,0.,12.0,0.,12.0,0.,12.0
1979-07-15 12:05:27.320 ,6,0,0.,12.0,0.,12.0,0.,12.0,0.,12.0
1979-07-15 12:05:39.320 ,7,1,0.,12.0,0.,12.0,0.,12.0,0.,12.0
1979-07-15 12:05:51.320 ,7,1,0.,12.0,0.,12.0,0.,12.0,0.,12.0
1979-07-15 12:06:03.320 ,7,0,0.,12.0,0.,12.0,0.,12.0,0.,12.0
1979-07-15 12:06:15.320 ,7,0,0.,12.0,0.,12.0,0.,12.0,0.,12.0
1979-07-15 12:06:27.320 ,7,1,0.,12.0,0.,12.0,0.,12.0,0.,12.0
1979-07-15 12:06:39.320 ,7,1,0.,12.0,0.,12.0,0.,12.0,0.,12.0
1979-07-15 12:06:51.320 ,7,0,0.,12.0,0.,12.0,0.,12.0,0.,12.0
1979-07-15 12:07:03.320 ,7,0,0.,12.0,0.,12.0,0.,12.0,0.,12.0
1979-07-15 12:07:15.320 ,6,1,0.,12.0,0.,12.0,0.,12.0,0.,12.0
1979-07-15 12:07:27.320 ,6,1,0.,12.0,0.,12.0,0.,12.0,0.,12.0
1979-07-15 12:07:39.320 ,6,0,0.,12.0,0.,12.0,0.,12.0,0.,12.0
1979-07-15 12:07:51.320 ,6,0,0.,12.0,0.,12.0,0.,12.0,0.,12.0
1979-07-15 12:07:39.320 ,6,0,0.,12.0,0.,12.0,0.,12.0,0.,12.0
1979-07-15 12:07:51.320 ,6,0,0.,12.0,0.,12.0,0.,12.0,0.,12.0
1979-07-15 12:08:03.320 ,5,1,0.,12.0,0.,12.0,0.,12.0,0.,12.0
1979-07-15 12:08:15.320 ,5,1,0.,12.0,0.,12.0,0.,12.0,0.,12.0
1979-07-15 12:08:27.320 ,5,0,0.,12.0,0.,12.0,0.,12.0,0.,12.0
1979-07-15 12:08:39.320 ,5,0,0.,12.0,0.,12.0,0.,12.0,0.,12.0
1979-07-15 12:08:51.320 ,4,1,0.,12.0,0.,12.0,0.,12.0,0.,12.0
1979-07-15 12:09:03.320 ,4,1,0.,12.0,0.,12.0,0.,12.0,0.,12.0
1979-07-15 12:09:15.320 ,4,0,0.,12.0,0.,12.0,0.,12.0,0.,12.0
1979-07-15 12:09:27.320 ,4,0,0.,12.0,0.,12.0,0.,12.0,0.,12.0
1979-07-15 12:09:39.320 ,3,1,0.,12.0,0.,12.0,0.,12.0,0.,12.0
1979-07-15 12:09:51.320 ,3,1,0.,12.0,0.,12.0,0.,12.0,0.,12.0
1979-07-15 12:10:03.320 ,3,0,0.,12.0,0.,12.0,0.,12.0,0.,12.0
1979-07-15 12:10:15.320 ,3,0,0.,12.0,0.,12.0,0.,12.0,0.,12.0
1979-07-15 12:10:27.320 ,2,1,0.,12.0,0.,12.0,0.,12.0,0.,12.0
1979-07-15 12:10:39.320 ,2,1,0.,12.0,0.,12.0,0.,12.0,0.,12.0
1979-07-15 12:10:51.320 ,2,0,0.,12.0,0.,12.0,0.,12.0,0.,12.0
1979-07-15 12:11:03.320 ,2,0,0.,12.0,0.,12.0,0.,12.0,0.,12.0
1979-07-15 12:11:15.320 ,1,1,0.,12.0,0.,12.0,0.,12.0,0.,12.0
1979-07-15 12:11:27.320 ,1,1,0.,12.0,0.,12.0,0.,12.0,0.,12.0
1979-07-15 12:11:39.320 ,1,0,0.,12.0,0.,12.0,0.,12.0,0.,12.0
1979-07-15 12:11:51.320 ,1,0,0.,12.0,0.,12.0,0.,12.0,0.,12.0
1979-07-15 12:12:03.320 ,0,1,0.,12.0,0.,12.0,0.,12.0,0.,12.0
1979-07-15 12:12:15.320 ,0,1,0.,12.0,0.,12.0,0.,12.0,0.,12.0
1979-07-15 12:12:27.320 ,0,0,0.,12.0,0.,12.0,0.,12.0,0.,12.0
1979-07-15 12:12:39.320 ,0,0,0.,12.0,0.,12.0,0.,12.0,0.,12.0
1979-07-15 12:12:51.320 ,0,1,0.,12.0,0.,12.0,0.,12.0,0.,12.0
1979-07-15 12:13:03.320 ,0,1,0.,12.0,0.,12.0,0.,12.0,0.,12.0
1979-07-15 12:13:15.320 ,0,0,0.,12.0,0.,12.0,0.,12.0,0.,12.0
1979-07-15 12:13:27.320 ,0,0,0.,12.0,0.,12.0,0.,12.0,0.,12.0
1979-07-15 12:13:39.320 ,1,1,0.,12.0,0.,12.0,0.,12.0,0.,12.0
1979-07-15 12:13:51.320 ,1,1,0.,12.0,0.,12.0,0.,12.0,0.,12.0
1979-07-15 12:14:03.320 ,1,0,0.,12.0,0.,12.0,0.,12.0,0.,12.0
1979-07-15 12:14:15.320 ,1,0,0.,12.0,0.,12.0,0.,12.0,0.,12.0
1979-07-15 12:14:27.320 ,2,1,0.,12.0,0.,12.0,0.,12.0,0.,12.0
1979-07-15 12:14:39.320 ,2,1,0.,12.0,0.,12.0,0.,12.0,0.,12.0
1979-07-15 12:14:51.320 ,2,0,0.,12.0,0.,12.0,0.,12.0,0.,12.0
1979-07-15 12:15:03.320 ,2,0,0.,12.0,0.,12.0,0.,12.0,0.,12.0
1979-07-15 12:15:15.320 ,3,1,0.,12.0,0.,12.0,0.,12.0,0.,12.0
1979-07-15 12:15:27.320 ,3,1,0.,12.0,0.,12.0,0.,12.0,0.,12.0
1979-07-15 12:15:39.320 ,3,0,0.,12.0,0.,12.0,0.,12.0,0.,12.0
1979-07-15 12:15:51.320 ,3,0,0.,12.0,0.,12.0,0.,12.0,0.,12.0
1979-07-15 12:16:03.320 ,4,1,0.,12.0,0.,12.0,0.,12.0,0.,12.0
1979-07-15 12:16:15.320 ,4,1,0.,12.0,0.,12.0,0.,12.0,0.,12.0
1979-07-15 12:16:27.320 ,4,0,0.,12.0,0.,12.0,0.,12.0,0.,12.0
1979-07-15 12:16:39.320 ,4,0,0.,12.0,0.,12.0,0.,12.0,0.,12.0
1979-07-15 12:16:51.320 ,5,1,0.,12.0,0.,12.0,0.,12.0,0.,12.0
1979-07-15 12:17:03.320 ,5,1,0.,12.0,0.,12.0,0.,12.0,0.,12.0
1979-07-15 12:17:15.320 ,5,0,0.,12.0,0.,12.0,0.,12.0,0.,12.0
1979-07-15 12:17:27.320 ,5,0,0.,12.0,0.,12.0,0.,12.0,0.,12.0
1979-07-15 12:17:39.320 ,6,1,0.,12.0,0.,12.0,0.,12.0,0.,12.0
1979-07-15 12:17:51.320 ,6,1,0.,12.0,0.,12.0,0.,12.0,0.,12.0
1979-07-15 12:18:03.320 ,6,0,0.,12.0,0.,12.0,0.,12.0,0.,12.0
1979-07-15 12:18:15.320 ,6,0,0.,12.0,0.,12.0,0.,12.0,0.,12.0
1979-07-15 12:18:27.320 ,7,0,0.,12.0,0.,12.0,0.,12.0,0.,12.0
1979-07-15 12:18:39.320 ,7,0,0.,12.0,0.,12.0,0.,12.0,0.,12.0
1979-07-15 12:18:51.320 ,7,0,0.,12.0,0.,12.0,0.,12.0,0.,12.0
1979-07-15 12:19:03.320 ,7,0,0.,12.0,0.,12.0,0.,12.0,0.,12.0
1979-07-15 12:19:15.320 ,4,1,0.,12.0,0.,12.0,0.,12.0,0.,12.0
1979-07-15 12:19:27.320 ,4,1,0.,12.0,0.,12.0,0.,12.0,0.,12.0
1979-07-15 12:19:39.320 ,0,1,0.,12.0,0.,12.0,0.,12.0,0.,12.0
1979-07-15 12:19:51.320 ,0,1,0.,12.0,0.,12.0,0.,12.0,0.,12.0
1979-07-15 12:20:03.320 ,3,1,0.,12.0,0.,12.0,0.,12.0,0.,12.0
1979-07-15 12:20:15.320 ,3,1,1.,12.0,0.,12.0,0.,12.0,0.,12.0
1979-07-15 12:20:27.320 ,7,1,0.,12.0,0.,12.0,0.,12.0,0.,12.0
1979-07-15 12:20:39.320 ,7,1,0.,12.0,0.,12.0,0.,12.0,0.,12.0
1979-07-15 12:20:51.320 ,4,1,0.,12.0,0.,12.0,0.,12.0,0.,12.0
1979-07-15 12:21:03.320 ,4,1,0.,12.0,0.,12.0,0.,12.0,0.,12.0
1979-07-15 12:21:15.320 ,0,1,0.,12.0,0.,12.0,0.,12.0,0.,12.0
1979-07-15 12:21:27.320 ,0,1,0.,12.0,0.,12.0,0.,12.0,0.,12.0
1979-07-15 12:21:39.320 ,3,1,0.,12.0,0.,12.0,0.,12.0,0.,12.0
1979-07-15 12:21:51.320 ,3,1,0.,12.0,0.,12.0,0.,12.0,0.,12.0
1979-07-15 12:22:03.320 ,7,1,0.,12.0,0.,12.0,0.,12.0,0.,12.0
1979-07-15 12:22:15.320 ,7,1,0.,12.0,0.,12.0,0.,12.0,0.,12.0
1979-07-15 12:22:27.320 ,0,0,0.,12.0,0.,12.0,0.,12.0,0.,12.0
1979-07-15 12:22:39.320 ,0,0,0.,12.0,0.,12.0,0.,12.0,0.,12.0
1979-07-15 12:22:51.320 ,0,1,0.,12.0,0.,12.0,0.,12.0,0.,12.0
1979-07-15 12:23:03.320 ,0,1,0.,12.0,0.,12.0,0.,12.0,0.,12.0
1979-07-15 12:23:15.320 ,3,1,0.,12.0,0.,12.0,0.,12.0,0.,12.0
1979-07-15 12:23:27.320 ,3,1,0.,12.0,0.,12.0,0.,12.0,0.,12.0
1979-07-15 12:23:39.320 ,7,1,0.,12.0,0.,12.0,0.,12.0,0.,12.0
1979-07-15 12:23:51.320 ,7,1,0.,12.0,0.,12.0,0.,12.0,0.,12.0
1979-07-15 12:24:03.320 ,4,1,0.,12.0,0.,12.0,0.,12.0,0.,12.0
1979-07-15 12:24:15.320 ,4,1,0.,12.0,0.,12.0,0.,12.0,0.,12.0
1979-07-15 12:24:27.320 ,0,1,0.,12.0,0.,12.0,0.,12.0,0.,12.0
1979-07-15 12:24:39.320 ,0,1,0.,12.0,0.,12.0,0.,12.0,0.,12.0
1979-07-15 12:24:51.320 ,3,1,0.,12.0,0.,12.0,0.,12.0,0.,12.0
1979-07-15 12:25:03.320 ,3,1,0.,12.0,0.,12.0,0.,12.0,0.,12.0
1979-07-15 12:25:15.320 ,7,1,0.,12.0,0.,12.0,0.,12.0,0.,12.0
1979-07-15 12:25:27.320 ,7,1,0.,12.0,0.,12.0,0.,12.0,0.,12.0
1979-07-15 12:25:39.320 ,4,1,0.,12.0,0.,12.0,0.,12.0,0.,12.0
1979-07-15 12:25:51.320 ,4,1,0.,12.0,0.,12.0,0.,12.0,0.,12.0
1979-07-15 12:26:03.320 ,0,1,0.,12.0,0.,12.0,0.,12.0,0.,12.0
1979-07-15 12:26:15.320 ,0,1,1.,12.0,0.,12.0,0.,12.0,0.,12.0
1979-07-15 12:26:27.320 ,3,1,0.,12.0,0.,12.0,0.,12.0,0.,12.0
1979-07-15 12:26:39.320 ,3,1,0.,12.0,0.,12.0,0.,12.0,0.,12.0
1979-07-15 12:26:51.320 ,7,1,0.,12.0,0.,12.0,0.,12.0,0.,12.0
1979-07-15 12:27:03.320 ,7,1,0.,12.0,0.,12.0,0.,12.0,0.,12.0
1979-07-15 12:27:15.320 ,4,1,0.,12.0,0.,12.0,0.,12.0,0.,12.0
1979-07-15 12:27:27.320 ,4,1,0.,12.0,0.,12.0,0.,12.0,0.,12.0
1979-07-15 12:27:39.320 ,0,1,0.,12.0,0.,12.0,0.,12.0,0.,12.0
1979-07-15 12:27:51.320 ,0,1,0.,12.0,0.,12.0,0.,12.0,0.,12.0
1979-07-15 12:28:03.320 ,3,1,0.,12.0,0.,12.0,0.,12.0,0.,12.0
1979-07-15 12:28:15.320 ,3,1,0.,12.0,0.,12.0,0.,12.0,0.,12.0
1979-07-15 12:28:27.320 ,7,1,0.,12.0,0.,12.0,0.,12.0,0.,12.0
1979-07-15 12:28:39.320 ,7,1,0.,12.0,0.,12.0,0.,12.0,0.,12.0
1979-07-15 12:28:51.320 ,4,1,0.,12.0,0.,12.0,0.,12.0,0.,12.0
1979-07-15 12:29:03.320 ,4,1,0.,12.0,0.,12.0,0.,12.0,0.,12.0
1979-07-15 12:29:15.320 ,0,1,0.,12.0,0.,12.0,0.,12.0,0.,12.0
1979-07-15 12:29:27.320 ,0,1,0.,12.0,0.,12.0,0.,12.0,0.,12.0
1979-07-15 12:29:39.320 ,0,0,0.,12.0,0.,12.0,0.,12.0,0.,12.0
1979-07-15 12:29:51.320 ,0,0,0.,12.0,0.,12.0,0.,12.0,0.,12.0
1979-07-15 12:30:03.320 ,0,0,0.,12.0,0.,12.0,0.,12.0,0.,12.0
1979-07-15 12:30:15.320 ,0,0,0.,12.0,0.,12.0,0.,12.0,0.,12.0
1979-07-15 12:30:27.320 ,5,1,0.,12.0,0.,12.0,0.,12.0,0.,12.0
1979-07-15 12:30:39.320 ,5,1,0.,12.0,0.,12.0,0.,12.0,0.,12.0
1979-07-15 12:30:51.320 ,5,0,0.,12.0,0.,12.0,0.,12.0,0.,12.0
1979-07-15 12:31:03.320 ,5,0,0.,12.0,0.,12.0,0.,12.0,0.,12.0
1979-07-15 12:31:15.320 ,4,1,0.,12.0,0.,12.0,0.,12.0,0.,12.0
1979-07-15 12:31:27.320 ,4,1,1.,12.0,0.,12.0,0.,12.0,0.,12.0
1979-07-15 12:31:39.320 ,4,0,0.,12.0,0.,12.0,0.,12.0,0.,12.0
1979-07-15 12:31:51.320 ,4,0,0.,12.0,0.,12.0,0.,12.0,0.,12.0
1979-07-15 12:32:03.320 ,3,1,0.,12.0,0.,12.0,0.,12.0,0.,12.0
1979-07-15 12:32:15.320 ,3,1,0.,12.0,0.,12.0,0.,12.0,0.,12.0
1979-07-15 12:32:27.320 ,3,0,0.,12.0,0.,12.0,0.,12.0,0.,12.0
1979-07-15 12:32:39.320 ,3,0,0.,12.0,0.,12.0,0.,12.0,0.,12.0
1979-07-15 12:32:51.320 ,2,1,0.,12.0,0.,12.0,0.,12.0,0.,12.0
1979-07-15 12:33:03.320 ,2,1,0.,12.0,0.,12.0,0.,12.0,0.,12.0
1979-07-15 12:33:15.320 ,2,0,0.,12.0,0.,12.0,0.,12.0,0.,12.0
1979-07-15 12:33:27.320 ,2,0,0.,12.0,0.,12.0,0.,12.0,0.,12.0
1979-07-15 12:33:39.320 ,1,1,0.,12.0,0.,12.0,0.,12.0,0.,12.0
1979-07-15 12:33:51.320 ,1,1,0.,12.0,0.,12.0,0.,12.0,0.,12.0
1979-07-15 12:34:03.320 ,1,0,0.,12.0,0.,12.0,0.,12.0,0.,12.0
1979-07-15 12:34:15.320 ,1,0,0.,12.0,0.,12.0,0.,12.0,0.,12.0
1979-07-15 12:34:27.320 ,0,1,0.,12.0,0.,12.0,0.,12.0,0.,12.0
1979-07-15 12:34:39.320 ,0,1,0.,12.0,0.,12.0,0.,12.0,0.,12.0
1979-07-15 12:34:51.320 ,0,0,0.,12.0,0.,12.0,0.,12.0,0.,12.0
1979-07-15 12:35:03.320 ,0,0,0.,12.0,0.,12.0,0.,12.0,0.,12.0
1979-07-15 12:35:15.320 ,0,1,0.,12.0,0.,12.0,0.,12.0,0.,12.0
1979-07-15 12:35:27.320 ,0,1,0.,12.0,0.,12.0,0.,12.0,0.,12.0
1979-07-15 12:35:39.320 ,0,0,0.,12.0,0.,12.0,0.,12.0,0.,12.0
1979-07-15 12:35:51.320 ,0,0,0.,12.0,0.,12.0,0.,12.0,0.,12.0
1979-07-15 12:36:03.320 ,1,1,0.,12.0,0.,12.0,0.,12.0,0.,12.0
1979-07-15 12:36:15.320 ,1,1,0.,12.0,0.,12.0,0.,12.0,0.,12.0
1979-07-15 12:36:27.320 ,1,0,0.,12.0,0.,12.0,0.,12.0,0.,12.0
1979-07-15 12:36:39.320 ,1,0,0.,12.0,0.,12.0,0.,12.0,0.,12.0
1979-07-15 12:36:51.320 ,2,1,0.,12.0,0.,12.0,0.,12.0,0.,12.0
1979-07-15 12:37:03.320 ,2,1,0.,12.0,0.,12.0,0.,12.0,0.,12.0
1979-07-15 12:37:15.320 ,2,0,0.,12.0,0.,12.0,0.,12.0,0.,12.0
1979-07-15 12:37:27.320 ,2,0,0.,12.0,0.,12.0,0.,12.0,0.,12.0
1979-07-15 12:37:39.320 ,3,1,0.,12.0,0.,12.0,0.,12.0,0.,12.0
1979-07-15 12:37:51.320 ,3,1,0.,12.0,0.,12.0,0.,12.0,0.,12.0
1979-07-15 12:38:03.320 ,3,0,0.,12.0,0.,12.0,0.,12.0,0.,12.0
1979-07-15 12:38:15.320 ,3,0,0.,12.0,0.,12.0,0.,12.0,0.,12.0
1979-07-15 12:38:27.320 ,4,1,0.,12.0,0.,12.0,0.,12.0,0.,12.0
1979-07-15 12:38:39.320 ,4,1,0.,12.0,0.,12.0,0.,12.0,0.,12.0
1979-07-15 12:38:51.320 ,4,0,0.,12.0,0.,12.0,0.,12.0,0.,12.0
1979-07-15 12:39:03.320 ,4,0,1.,12.0,0.,12.0,0.,12.0,0.,12.0
1979-07-15 12:39:15.320 ,5,1,0.,12.0,0.,12.0,0.,12.0,0.,12.0
1979-07-15 12:39:27.320 ,5,1,0.,12.0,0.,12.0,0.,12.0,0.,12.0
1979-07-15 12:39:39.320 ,5,0,0.,12.0,0.,12.0,0.,12.0,0.,12.0
1979-07-15 12:39:51.320 ,5,0,0.,12.0,0.,12.0,0.,12.0,0.,12.0
1979-07-15 12:40:03.320 ,6,1,0.,12.0,0.,12.0,0.,12.0,0.,12.0
1979-07-15 12:40:15.320 ,6,1,0.,12.0,0.,12.0,0.,12.0,0.,12.0
1979-07-15 12:40:27.320 ,6,0,0.,12.0,0.,12.0,0.,12.0,0.,12.0
1979-07-15 12:40:39.320 ,6,0,0.,12.0,0.,12.0,0.,12.0,0.,12.0
1979-07-15 12:40:51.320 ,7,1,0.,12.0,0.,12.0,0.,12.0,0.,12.0
1979-07-15 12:41:03.320 ,7,1,0.,12.0,0.,12.0,0.,12.0,0.,12.0
1979-07-15 12:41:15.320 ,7,0,0.,12.0,0.,12.0,0.,12.0,0.,12.0
1979-07-15 12:41:27.320 ,7,0,0.,12.0,0.,12.0,0.,12.0,0.,12.0
1979-07-15 12:41:39.320 ,7,1,0.,12.0,0.,12.0,0.,12.0,0.,12.0
1979-07-15 12:41:51.320 ,7,1,0.,12.0,0.,12.0,0.,12.0,0.,12.0
1979-07-15 12:42:03.320 ,7,0,0.,12.0,0.,12.0,0.,12.0,0.,12.0
1979-07-15 12:42:15.320 ,7,0,0.,12.0,0.,12.0,0.,12.0,0.,12.0
1979-07-15 12:42:27.320 ,6,1,0.,12.0,0.,12.0,0.,12.0,0.,12.0
1979-07-15 12:42:39.320 ,6,1,0.,12.0,0.,12.0,0.,12.0,0.,12.0
1979-07-15 12:42:51.320 ,6,0,0.,12.0,0.,12.0,0.,12.0,0.,12.0
1979-07-15 12:43:03.320 ,6,0,0.,12.0,0.,12.0,0.,12.0,0.,12.0
1979-07-15 12:43:15.320 ,5,1,0.,12.0,0.,12.0,0.,12.0,0.,12.0
1979-07-15 12:43:27.320 ,5,1,0.,12.0,0.,12.0,0.,12.0,0.,12.0
1979-07-15 12:43:39.320 ,5,0,0.,12.0,0.,12.0,0.,12.0,0.,12.0
1979-07-15 12:43:51.320 ,5,0,0.,12.0,0.,12.0,0.,12.0,0.,12.0
1979-07-15 12:44:03.320 ,4,1,0.,12.0,0.,12.0,0.,12.0,0.,12.0
1979-07-15 12:44:15.320 ,4,1,0.,12.0,0.,12.0,0.,12.0,0.,12.0
1979-07-15 12:44:27.320 ,4,0,0.,12.0,0.,12.0,0.,12.0,0.,12.0
1979-07-15 12:44:39.320 ,4,0,0.,12.0,0.,12.0,0.,12.0,0.,12.0
1979-07-15 12:44:51.320 ,3,1,1.,12.0,0.,12.0,0.,12.0,0.,12.0
1979-07-15 12:45:03.320 ,3,1,0.,12.0,0.,12.0,0.,12.0,0.,12.0
1979-07-15 12:45:15.320 ,3,0,0.,12.0,0.,12.0,0.,12.0,0.,12.0
1979-07-15 12:45:27.320 ,3,0,0.,12.0,0.,12.0,0.,12.0,0.,12.0
1979-07-15 12:45:39.320 ,2,1,0.,12.0,0.,12.0,0.,12.0,0.,12.0
1979-07-15 12:45:51.320 ,2,1,0.,12.0,0.,12.0,0.,12.0,0.,12.0
1979-07-15 12:46:03.320 ,2,0,0.,12.0,0.,12.0,0.,12.0,0.,12.0
1979-07-15 12:46:15.320 ,2,0,0.,12.0,0.,12.0,0.,12.0,0.,12.0
1979-07-15 12:46:27.320 ,1,1,0.,12.0,0.,12.0,0.,12.0,0.,12.0
1979-07-15 12:46:39.320 ,1,1,0.,12.0,0.,12.0,0.,12.0,0.,12.0
1979-07-15 12:46:51.320 ,1,0,0.,12.0,0.,12.0,0.,12.0,0.,12.0
1979-07-15 12:47:03.320 ,1,0,0.,12.0,0.,12.0,0.,12.0,0.,12.0
1979-07-15 12:47:15.320 ,0,1,0.,12.0,0.,12.0,0.,12.0,0.,12.0
1979-07-15 12:47:27.320 ,0,1,0.,12.0,0.,12.0,0.,12.0,0.,12.0
1979-07-15 12:47:39.320 ,0,0,0.,12.0,0.,12.0,0.,12.0,0.,12.0
1979-07-15 12:47:51.320 ,0,0,0.,12.0,0.,12.0,0.,12.0,0.,12.0
1979-07-15 12:48:03.320 ,0,1,0.,12.0,0.,12.0,0.,12.0,0.,12.0
1979-07-15 12:48:15.320 ,0,1,0.,12.0,0.,12.0,0.,12.0,0.,12.0
1979-07-15 12:48:27.320 ,0,0,0.,12.0,0.,12.0,0.,12.0,0.,12.0
1979-07-15 12:48:39.320 ,0,0,0.,12.0,0.,12.0,0.,12.0,0.,12.0
1979-07-15 12:48:51.320 ,1,1,0.,12.0,0.,12.0,0.,12.0,0.,12.0
1979-07-15 12:49:03.320 ,1,1,0.,12.0,0.,12.0,0.,12.0,0.,12.0
1979-07-15 12:49:15.320 ,1,0,0.,12.0,0.,12.0,0.,12.0,0.,12.0
1979-07-15 12:49:27.320 ,1,0,0.,12.0,0.,12.0,0.,12.0,0.,12.0
1979-07-15 12:49:39.320 ,2,1,0.,12.0,0.,12.0,0.,12.0,0.,12.0
1979-07-15 12:49:51.320 ,2,1,0.,12.0,0.,12.0,0.,12.0,0.,12.0
1979-07-15 12:50:03.320 ,2,0,0.,12.0,0.,12.0,0.,12.0,0.,12.0
1979-07-15 12:50:15.320 ,2,0,0.,12.0,0.,12.0,0.,12.0,0.,12.0
1979-07-15 12:50:27.320 ,3,1,0.,12.0,0.,12.0,0.,12.0,0.,12.0
1979-07-15 12:50:39.320 ,3,1,0.,12.0,0.,12.0,0.,12.0,0.,12.0
1979-07-15 12:50:51.320 ,3,0,0.,12.0,0.,12.0,0.,12.0,0.,12.0
1979-07-15 12:51:03.320 ,3,0,0.,12.0,0.,12.0,0.,12.0,0.,12.0
1979-07-15 12:51:15.320 ,4,1,0.,12.0,0.,12.0,0.,12.0,0.,12.0
1979-07-15 12:51:27.320 ,4,1,0.,12.0,0.,12.0,0.,12.0,0.,12.0
1979-07-15 12:51:39.320 ,4,0,0.,12.0,0.,12.0,0.,12.0,0.,12.0
1979-07-15 12:51:51.320 ,4,0,0.,12.0,0.,12.0,0.,12.0,0.,12.0
1979-07-15 12:52:03.320 ,5,1,0.,12.0,0.,12.0,0.,12.0,0.,12.0
1979-07-15 12:52:15.320 ,5,1,1.,12.0,0.,12.0,0.,12.0,0.,12.0
1979-07-15 12:52:27.320 ,5,0,0.,12.0,0.,12.0,0.,12.0,0.,12.0
1979-07-15 12:52:39.320 ,5,0,0.,12.0,0.,12.0,0.,12.0,0.,12.0
1979-07-15 12:52:51.320 ,6,1,0.,12.0,0.,12.0,0.,12.0,0.,12.0
1979-07-15 12:53:03.320 ,6,1,0.,12.0,0.,12.0,0.,12.0,0.,12.0
1979-07-15 12:53:15.320 ,6,0,0.,12.0,0.,12.0,0.,12.0,0.,12.0
1979-07-15 12:53:27.320 ,6,0,0.,12.0,0.,12.0,0.,12.0,0.,12.0
1979-07-15 12:53:39.320 ,7,1,0.,12.0,0.,12.0,0.,12.0,0.,12.0
1979-07-15 12:53:51.320 ,7,1,0.,12.0,0.,12.0,0.,12.0,0.,12.0
1979-07-15 12:54:03.320 ,7,0,0.,12.0,0.,12.0,0.,12.0,0.,12.0
1979-07-15 12:54:15.320 ,7,0,0.,12.0,0.,12.0,0.,12.0,0.,12.0
1979-07-15 12:54:27.320 ,7,1,0.,12.0,0.,12.0,0.,12.0,0.,12.0
1979-07-15 12:54:39.320 ,7,1,0.,12.0,0.,12.0,0.,12.0,0.,12.0
1979-07-15 12:54:51.320 ,7,0,0.,12.0,0.,12.0,0.,12.0,0.,12.0
1979-07-15 12:55:03.320 ,7,0,0.,12.0,0.,12.0,0.,12.0,0.,12.0
1979-07-15 12:55:15.320 ,6,1,0.,12.0,0.,12.0,0.,12.0,0.,12.0
1979-07-15 12:55:27.320 ,6,1,0.,12.0,0.,12.0,0.,12.0,0.,12.0
1979-07-15 12:55:39.320 ,6,0,0.,12.0,0.,12.0,0.,12.0,0.,12.0
1979-07-15 12:55:51.320 ,6,0,0.,12.0,0.,12.0,0.,12.0,0.,12.0
1979-07-15 12:56:03.320 ,5,1,0.,12.0,0.,12.0,0.,12.0,0.,12.0
1979-07-15 12:56:15.320 ,5,1,0.,12.0,0.,12.0,0.,12.0,0.,12.0
1979-07-15 12:56:27.320 ,5,0,0.,12.0,0.,12.0,0.,12.0,0.,12.0
1979-07-15 12:56:39.320 ,5,0,0.,12.0,0.,12.0,0.,12.0,0.,12.0
1979-07-15 12:56:51.320 ,4,1,0.,12.0,0.,12.0,0.,12.0,0.,12.0
1979-07-15 12:57:03.320 ,4,1,0.,12.0,0.,12.0,0.,12.0,0.,12.0
1979-07-15 12:57:15.320 ,4,0,0.,12.0,0.,12.0,0.,12.0,0.,12.0
1979-07-15 12:57:27.320 ,4,0,0.,12.0,0.,12.0,0.,12.0,0.,12.0
1979-07-15 12:57:39.320 ,3,1,0.,12.0,0.,12.0,0.,12.0,0.,12.0
1979-07-15 12:57:51.320 ,3,1,0.,12.0,0.,12.0,0.,12.0,0.,12.0
1979-07-15 12:58:03.320 ,3,0,0.,12.0,0.,12.0,0.,12.0,0.,12.0
1979-07-15 12:58:15.320 ,3,0,0.,12.0,0.,12.0,0.,12.0,0.,12.0
1979-07-15 12:58:27.320 ,2,1,0.,12.0,0.,12.0,0.,12.0,0.,12.0
1979-07-15 12:58:39.320 ,2,1,1.,12.0,0.,12.0,0.,12.0,0.,12.0
1979-07-15 12:58:51.320 ,2,0,0.,12.0,0.,12.0,0.,12.0,0.,12.0
1979-07-15 12:59:03.320 ,2,0,0.,12.0,0.,12.0,0.,12.0,0.,12.0
1979-07-15 12:59:15.320 ,1,1,0.,12.0,0.,12.0,0.,12.0,0.,12.0
1979-07-15 12:59:27.320 ,1,1,0.,12.0,0.,12.0,0.,12.0,0.,12.0
1979-07-15 12:59:39.320 ,1,0,0.,12.0,0.,12.0,0.,12.0,0.,12.0
1979-07-15 12:59:51.320 ,1,0,0.,12.0,0.,12.0,0.,12.0,0.,12.0
1979-07-15 13:00:03.320 ,0,1,0.,12.0,0.,12.0,0.,12.0,0.,12.0
1979-07-15 13:00:15.320 ,0,1,0.,12.0,0.,12.0,0.,12.0,0.,12.0
1979-07-15 13:00:27.320 ,0,0,0.,12.0,0.,12.0,0.,12.0,0.,12.0
1979-07-15 13:00:39.320 ,0,0,0.,12.0,0.,12.0,0.,12.0,0.,12.0
1979-07-15 13:00:51.320 ,0,1,1.,12.0,0.,12.0,0.,12.0,0.,12.0
1979-07-15 13:01:03.320 ,0,1,0.,12.0,0.,12.0,0.,12.0,0.,12.0
1979-07-15 13:01:15.320 ,0,0,0.,12.0,0.,12.0,0.,12.0,0.,12.0
1979-07-15 13:01:27.320 ,0,0,0.,12.0,0.,12.0,0.,12.0,0.,12.0
1979-07-15 13:01:39.320 ,1,1,0.,12.0,0.,12.0,0.,12.0,0.,12.0
1979-07-15 13:01:51.320 ,1,1,0.,12.0,0.,12.0,0.,12.0,0.,12.0
1979-07-15 13:02:03.320 ,1,0,0.,12.0,0.,12.0,0.,12.0,0.,12.0
1979-07-15 13:02:15.320 ,1,0,0.,12.0,0.,12.0,0.,12.0,0.,12.0
1979-07-15 13:02:27.320 ,2,1,0.,12.0,0.,12.0,0.,12.0,0.,12.0
1979-07-15 13:02:39.320 ,2,1,0.,12.0,0.,12.0,0.,12.0,0.,12.0
1979-07-15 13:02:51.320 ,0,0,0.,12.0,0.,12.0,0.,12.0,0.,12.0
1979-07-15 13:03:03.320 ,0,0,0.,12.0,0.,12.0,0.,12.0,0.,12.0
1979-07-15 13:03:24.920 ,0,0,,0,,0,,0,,0
1979-07-15 13:03:36.920 ,0,0,0.,12.0,0.,12.0,0.,12.0,0.,12.0
1979-07-15 13:03:39.320 ,0,0,0.,12.0,0.,12.0,0.,12.0,0.,12.0
1979-07-15 13:03:51.320 ,0,0,0.,12.0,0.,12.0,0.,12.0,0.,12.0
1979-07-15 13:04:03.320 ,4,1,0.,12.0,0.,12.0,0.,12.0,0.,12.0
1979-07-15 13:04:15.320 ,4,1,0.,12.0,0.,12.0,0.,12.0,0.,12.0
1979-07-15 13:04:27.320 ,4,0,0.,12.0,0.,12.0,0.,12.0,0.,12.0
1979-07-15 13:04:39.320 ,4,0,0.,12.0,0.,12.0,0.,12.0,0.,12.0
1979-07-15 13:04:51.320 ,5,1,1.,12.0,0.,12.0,0.,12.0,0.,12.0
1979-07-15 13:05:03.320 ,5,1,0.,12.0,0.,12.0,0.,12.0,0.,12.0
1979-07-15 13:05:15.320 ,5,0,0.,12.0,0.,12.0,0.,12.0,0.,12.0
1979-07-15 13:05:27.320 ,5,0,0.,12.0,0.,12.0,0.,12.0,0.,12.0
1979-07-15 13:05:39.320 ,6,1,0.,12.0,0.,12.0,0.,12.0,0.,12.0
1979-07-15 13:05:51.320 ,6,1,0.,12.0,0.,12.0,0.,12.0,0.,12.0
1979-07-15 13:06:03.320 ,6,0,0.,12.0,0.,12.0,0.,12.0,0.,12.0
1979-07-15 13:06:15.320 ,6,0,0.,12.0,0.,12.0,0.,12.0,0.,12.0
1979-07-15 13:06:27.320 ,7,0,0.,12.0,0.,12.0,0.,12.0,0.,12.0
1979-07-15 13:06:39.320 ,7,0,0.,12.0,0.,12.0,0.,12.0,0.,12.0
1979-07-15 13:06:51.320 ,7,0,0.,12.0,0.,12.0,0.,12.0,0.,12.0
1979-07-15 13:07:03.320 ,7,0,0.,12.0,0.,12.0,0.,12.0,0.,12.0
1979-07-15 13:07:15.320 ,4,1,0.,12.0,0.,12.0,0.,12.0,0.,12.0
1979-07-15 13:07:27.320 ,4,1,0.,12.0,0.,12.0,0.,12.0,0.,12.0
1979-07-15 13:07:39.320 ,0,1,0.,12.0,0.,12.0,0.,12.0,0.,12.0
1979-07-15 13:07:51.320 ,0,1,0.,12.0,0.,12.0,0.,12.0,0.,12.0
1979-07-15 13:08:03.320 ,3,1,0.,12.0,0.,12.0,0.,12.0,0.,12.0
1979-07-15 13:08:15.320 ,3,1,0.,12.0,0.,12.0,0.,12.0,0.,12.0
1979-07-15 13:08:27.320 ,7,1,0.,12.0,0.,12.0,0.,12.0,0.,12.0
1979-07-15 13:08:39.320 ,7,1,0.,12.0,0.,12.0,0.,12.0,0.,12.0
1979-07-15 13:08:51.320 ,4,1,0.,12.0,0.,12.0,0.,12.0,0.,12.0
1979-07-15 13:09:03.320 ,4,1,0.,12.0,0.,12.0,0.,12.0,0.,12.0
1979-07-15 13:09:15.320 ,0,1,0.,12.0,0.,12.0,0.,12.0,0.,12.0
1979-07-15 13:09:27.320 ,0,1,0.,12.0,0.,12.0,0.,12.0,0.,12.0
1979-07-15 13:09:39.320 ,3,1,0.,12.0,0.,12.0,0.,12.0,0.,12.0
1979-07-15 13:09:51.320 ,3,1,0.,12.0,0.,12.0,0.,12.0,0.,12.0
1979-07-15 13:10:03.320 ,7,1,0.,12.0,0.,12.0,0.,12.0,0.,12.0
1979-07-15 13:10:15.320 ,7,1,0.,12.0,0.,12.0,0.,12.0,0.,12.0
1979-07-15 13:10:27.320 ,4,1,0.,12.0,0.,12.0,0.,12.0,0.,12.0
1979-07-15 13:10:39.320 ,4,1,0.,12.0,0.,12.0,0.,12.0,0.,12.0
1979-07-15 13:10:51.320 ,0,1,0.,12.0,0.,12.0,0.,12.0,0.,12.0
1979-07-15 13:11:03.320 ,0,1,0.,12.0,0.,12.0,0.,12.0,0.,12.0
1979-07-15 13:11:15.320 ,3,1,0.,12.0,0.,12.0,0.,12.0,0.,12.0
1979-07-15 13:11:27.320 ,3,1,0.,12.0,0.,12.0,0.,12.0,0.,12.0
1979-07-15 13:11:39.320 ,7,1,0.,12.0,0.,12.0,0.,12.0,0.,12.0
1979-07-15 13:11:51.320 ,7,1,0.,12.0,0.,12.0,0.,12.0,0.,12.0
1979-07-15 13:12:03.320 ,4,1,0.,12.0,0.,12.0,0.,12.0,0.,12.0
1979-07-15 13:12:15.320 ,4,1,0.,12.0,0.,12.0,0.,12.0,0.,12.0
1979-07-15 13:12:27.320 ,0,1,0.,12.0,0.,12.0,0.,12.0,0.,12.0
1979-07-15 13:12:39.320 ,0,1,0.,12.0,0.,12.0,0.,12.0,0.,12.0
1979-07-15 13:12:51.320 ,3,1,0.,12.0,0.,12.0,0.,12.0,0.,12.0
1979-07-15 13:13:03.320 ,3,1,0.,12.0,0.,12.0,0.,12.0,0.,12.0
1979-07-15 13:13:15.320 ,7,1,0.,12.0,0.,12.0,0.,12.0,0.,12.0
1979-07-15 13:13:27.320 ,7,1,0.,12.0,0.,12.0,0.,12.0,0.,12.0
1979-07-15 13:13:39.320 ,4,1,0.,12.0,0.,12.0,0.,12.0,0.,12.0
1979-07-15 13:13:51.320 ,4,1,0.,12.0,0.,12.0,0.,12.0,0.,12.0
1979-07-15 13:14:03.320 ,0,1,0.,12.0,0.,12.0,0.,12.0,0.,12.0
1979-07-15 13:14:15.320 ,0,1,0.,12.0,0.,12.0,0.,12.0,0.,12.0
1979-07-15 13:14:28.520 ,3,1,0.,12.0,0.,12.0,0.,12.0,0.,12.0
1979-07-15 13:14:40.520 ,3,1,0.,12.0,0.,12.0,0.,12.0,0.,12.0
1979-07-15 13:14:51.320 ,7,1,0.,12.0,0.,12.0,0.,12.0,0.,12.0
1979-07-15 13:15:03.320 ,7,1,1.,12.0,0.,12.0,0.,12.0,0.,12.0
1979-07-15 13:15:15.320 ,4,1,0.,12.0,0.,12.0,0.,12.0,0.,12.0
1979-07-15 13:15:27.320 ,4,1,0.,12.0,0.,12.0,0.,12.0,0.,12.0
1979-07-15 13:15:39.320 ,0,1,0.,12.0,0.,12.0,0.,12.0,0.,12.0
1979-07-15 13:15:51.320 ,0,1,0.,12.0,0.,12.0,0.,12.0,0.,12.0
1979-07-15 13:16:03.320 ,3,1,0.,12.0,0.,12.0,0.,12.0,0.,12.0
1979-07-15 13:16:15.320 ,3,1,0.,12.0,0.,12.0,0.,12.0,0.,12.0
1979-07-15 13:16:27.320 ,7,1,0.,12.0,0.,12.0,0.,12.0,0.,12.0
1979-07-15 13:16:39.320 ,7,1,0.,12.0,0.,12.0,0.,12.0,0.,12.0
1979-07-15 13:16:51.320 ,4,1,0.,12.0,0.,12.0,0.,12.0,0.,12.0
1979-07-15 13:17:03.320 ,4,1,0.,12.0,0.,12.0,0.,12.0,0.,12.0